EW7157 Weather Reports


time (UTC)temp
C
wind
direction
speed
KPH
gust
KPH
rain 1hr
cm
rain 24hr
cm
rain mn
cm
humidity
%
barometer
mb
20260506201509 17 316 0.0 4.8 0.00 0.33 0.33 84 1029.4
20260506200509 17 180 0.0 0.0 0.00 0.33 0.33 85 1029.4
20260506195511 17 337 0.0 3.2 0.00 0.33 0.33 86 1029.5
20260506194511 17 67 0.0 0.0 0.00 0.33 0.33 88 1029.7
20260506194409 17 67 0.0 0.0 0.00 0.33 0.33 88 1029.7
20260506193410 16 67 0.0 0.0 0.00 0.33 0.33 88 1029.7
20260506192410 16 202 0.0 0.0 0.00 0.33 0.33 89 1029.9
20260506191410 16 57 0.0 3.2 0.00 0.33 0.33 90 1030.1
20260506190410 16 67 0.0 0.0 0.00 0.33 0.33 90 1030.2
20260506185409 16 45 0.0 3.2 0.00 0.33 0.33 90 1030.1
20260506183509 16 184 0.0 9.7 0.00 0.33 0.33 90 1030.3
20260506183412 16 157 0.0 0.0 0.00 0.33 0.33 91 1030.3
20260506182411 16 67 0.0 0.0 0.00 0.33 0.33 91 1030.4
20260506181411 16 91 1.6 11.3 0.00 0.33 0.33 91 1030.5
20260506181311 16 360 0.0 1.6 0.00 0.33 0.33 91 1030.4
20260506175311 16 315 0.0 0.0 0.00 0.33 0.33 91 1030.4
20260506175211 16 315 0.0 0.0 0.00 0.33 0.33 90 1030.6
20260506174212 16 22 0.0 0.0 0.03 0.33 0.33 91 1030.5
20260506173211 16 22 0.0 8.0 0.03 0.33 0.33 90 1030.6
20260506172211 16 360 0.0 0.0 0.05 0.33 0.33 90 1030.7
20260506171210 16 199 0.0 3.2 0.05 0.33 0.33 89 1030.7
20260506170212 16 36 0.0 0.0 0.10 0.33 0.33 91 1030.6
20260506165310 16 318 0.0 3.2 0.13 0.33 0.33 89 1030.6
20260506164311 16 41 1.6 3.2 0.13 0.30 0.30 90 1030.6
20260506163310 16 14 1.6 6.4 0.18 0.30 0.30 89 1030.6
20260506162310 16 51 1.6 4.8 0.20 0.28 0.28 90 1031.0
20260506161409 16 324 0.0 3.2 0.23 0.28 0.28 88 1031.5
20260506160412 16 6 0.0 3.2 0.25 0.25 0.25 88 1031.8
20260506155410 16 45 0.0 0.0 0.20 0.20 0.20 86 1032.2
20260506154428 16 45 0.0 0.0 0.18 0.18 0.18 84 1032.2
20260506154312 16 45 0.0 0.0 0.18 0.18 0.18 85 1032.2
20260506154209 16 45 0.0 1.6 0.18 0.18 0.15 84 1032.2
20260506153211 16 45 0.0 0.0 0.13 0.13 0.10 84 1032.1
20260506152212 17 45 0.0 3.2 0.08 0.08 0.08 81 1032.2
20260506145411 18 270 0.0 0.0 0.00 0.00 0.00 75 1031.8
20260506144410 18 90 0.0 1.6 0.00 0.00 0.00 73 1032.0
20260506143410 19 337 0.0 0.0 0.00 0.00 0.00 68 1032.1
20260506142411 19 315 0.0 0.0 0.00 0.00 0.00 65 1032.0
20260506141410 20 189 1.6 8.0 0.00 0.00 0.00 64 1031.8
20260506140410 20 299 1.6 6.4 0.00 0.00 0.00 65 1031.7
20260506135509 19 287 0.0 4.8 0.00 0.00 0.00 66 1031.7
20260506134510 19 358 0.0 4.8 0.00 0.00 0.00 68 1031.7
20260506133511 18 352 0.0 3.2 0.00 0.00 0.00 68 1031.9
20260506132510 19 337 0.0 1.6 0.00 0.00 0.00 67 1031.7
20260506131511 19 288 0.0 3.2 0.00 0.00 0.00 67 1031.6
20260506123512 18 78 0.0 1.6 0.00 0.00 0.00 70 1032.1
20260506122610 18 45 0.0 3.2 0.00 0.00 0.00 71 1031.7
20260506122511 18 318 0.0 4.8 0.00 0.00 0.00 70 1031.8
20260506121609 18 225 0.0 0.0 0.00 0.00 0.00 70 1031.8
20260506121527 18 267 0.0 1.6 0.00 0.00 0.00 71 1031.8
20260506120612 17 90 0.0 3.2 0.00 0.00 0.00 72 1032.1
20260506115708 17 270 0.0 1.6 0.00 0.00 0.00 73 1032.0
20260506115610 17 286 0.0 3.2 0.00 0.00 0.00 73 1031.9
20260506114610 17 357 0.0 4.8 0.00 0.00 0.00 72 1032.1
20260506114510 17 337 0.0 0.0 0.00 0.00 0.00 72 1032.0
20260506113609 17 277 0.0 1.6 0.00 0.00 0.00 73 1031.7
20260506113510 17 52 0.0 4.8 0.00 0.00 0.00 72 1031.7
20260506112510 17 45 1.6 6.4 0.00 0.00 0.00 72 1031.8
20260506111610 17 45 0.0 1.6 0.00 0.00 0.00 73 1031.9
20260506105613 17 45 0.0 6.4 0.00 0.00 0.00 75 1031.8
20260506104709 17 71 0.0 4.8 0.00 0.00 0.00 75 1031.7
20260506103710 17 180 0.0 0.0 0.00 0.00 0.00 75 1031.7
20260506102711 17 315 0.0 0.0 0.00 0.00 0.00 76 1031.7
20260506101809 17 204 0.0 0.0 0.00 0.00 0.00 76 1031.7
20260506095810 17 45 0.0 1.6 0.00 0.00 0.00 75 1031.7
20260506094811 17 360 0.0 3.2 0.00 0.00 0.00 74 1031.6
20260506093909 17 337 0.0 3.2 0.00 0.00 0.00 74 1031.5
20260506091811 17 360 0.0 3.2 0.00 0.00 0.00 74 1031.5
20260506091711 17 22 0.0 3.2 0.00 0.00 0.00 74 1031.5
20260506090809 17 206 0.0 3.2 0.00 0.00 0.00 73 1031.4
20260506085810 17 37 1.6 6.4 0.00 0.00 0.00 73 1031.7
20260506085711 17 17 1.6 8.0 0.00 0.00 0.00 74 1031.7
20260506084711 17 180 0.0 1.6 0.00 0.00 0.00 74 1031.7
20260506083711 17 67 0.0 1.6 0.00 0.00 0.00 75 1031.7
20260506082712 17 45 0.0 1.6 0.00 0.00 0.00 75 1031.7
20260506081809 17 315 0.0 1.6 0.00 0.00 0.00 75 1031.8
20260506080811 17 360 0.0 1.6 0.00 0.00 0.00 74 1032.0
20260506072809 18 292 0.0 1.6 0.00 0.00 0.00 72 1032.1
20260506061811 18 307 0.0 4.8 0.00 0.00 0.00 70 1032.4
20260506060809 18 22 0.0 3.2 0.00 0.00 0.00 69 1032.4
20260506050711 18 270 0.0 0.0 0.00 0.00 0.00 64 1032.8
20260506044710 18 275 0.0 3.2 0.00 0.00 0.00 63 1032.9
20260506043710 19 360 0.0 1.6 0.00 0.00 0.00 62 1032.9
20260506043610 19 271 0.0 3.2 0.00 0.00 0.00 63 1032.9
20260506042710 19 32 0.0 3.2 0.00 0.00 0.00 62 1032.8
20260506041809 19 360 0.0 0.0 0.00 0.00 0.00 62 1032.8
20260506035815 19 315 0.0 3.2 0.00 0.00 0.00 59 1032.7
20260506034814 19 303 1.6 4.8 0.00 0.00 0.00 59 1032.7
20260506033815 20 360 0.0 0.0 0.00 0.00 0.00 58 1032.7
20260506032913 20 319 0.0 6.4 0.00 0.00 0.00 58 1032.8
20260506032813 20 315 0.0 4.8 0.00 0.00 0.00 58 1032.7
20260506031815 20 360 0.0 0.0 0.00 0.00 0.00 58 1032.5
20260506030815 20 360 1.6 6.4 0.00 0.00 0.00 58 1032.7
20260506030714 20 338 0.0 3.2 0.00 0.00 0.00 57 1032.6
20260506025715 20 341 0.0 3.2 0.00 0.00 0.00 57 1032.8
20260506024716 20 360 0.0 1.6 0.00 0.00 0.00 57 1032.7
20260506024615 20 341 0.0 3.2 0.00 0.00 0.00 57 1032.8
20260506023614 20 315 0.0 0.0 0.00 0.00 0.00 57 1032.9
20260506015517 21 270 0.0 0.0 0.00 0.00 0.00 51 1032.7
20260506014613 21 360 0.0 0.0 0.00 0.00 0.00 49 1032.5
20260506013615 21 300 0.0 4.8 0.00 0.00 0.00 48 1032.4
20260506011614 22 337 0.0 8.0 0.00 0.00 0.00 45 1032.2
20260506010616 22 360 0.0 1.6 0.00 0.00 0.00 42 1032.1
20260506010514 22 330 0.0 3.2 0.00 0.00 0.00 42 1032.2
20260506005513 23 247 0.0 0.0 0.00 0.00 0.00 41 1032.0
20260506004516 23 324 0.0 0.0 0.00 0.00 0.00 39 1031.9
20260506003614 23 14 0.0 1.6 0.00 0.00 0.00 39 1031.7
20260506003515 23 14 0.0 3.2 0.00 0.00 0.00 39 1031.7
20260506000614 23 2 1.6 4.8 0.00 0.00 0.00 39 1031.4
20260505235613 23 337 0.0 0.0 0.00 0.00 0.00 40 1031.3
20260505234614 24 350 1.6 6.4 0.00 0.00 0.00 40 1031.2
20260505233615 24 7 0.0 4.8 0.00 0.00 0.00 40 1031.2
20260505233514 24 22 1.6 3.2 0.00 0.00 0.00 40 1031.1
20260505230516 25 41 1.6 6.4 0.00 0.00 0.00 38 1031.0
20260505225515 25 337 0.0 0.0 0.00 0.00 0.00 37 1031.0
20260505224515 25 225 0.0 1.6 0.00 0.00 0.00 36 1030.8
20260505224415 25 79 0.0 4.8 0.00 0.00 0.00 35 1030.8
20260505223415 25 218 0.0 4.8 0.00 0.00 0.00 34 1030.8
20260505222514 25 278 1.6 4.8 0.00 0.00 0.00 34 1030.6
20260505221614 25 274 0.0 4.8 0.00 0.00 0.00 34 1030.7
20260505221516 25 142 0.0 1.6 0.00 0.00 0.00 33 1030.7
20260505221415 25 201 1.6 4.8 0.00 0.00 0.00 33 1030.9
20260505221314 25 313 1.6 12.9 0.00 0.00 0.00 33 1030.7
20260505220414 26 189 1.6 4.8 0.00 0.00 0.00 33 1030.7
20260505215415 26 5 0.0 3.2 0.00 0.00 0.00 32 1030.6
20260505214513 26 139 0.0 3.2 0.00 0.00 0.00 32 1030.6
20260505213516 26 246 1.6 8.0 0.00 0.00 0.00 31 1030.7
20260505212613 26 289 1.6 14.5 0.00 0.00 0.00 31 1030.7
20260505210617 26 293 0.0 4.8 0.00 0.00 0.00 30 1030.6
20260505205714 26 315 0.0 0.0 0.00 0.00 0.00 28 1030.5
20260505204813 26 274 0.0 3.2 0.00 0.00 0.00 27 1030.4
20260505202817 27 214 0.0 3.2 0.00 0.00 0.00 25 1030.5